Back to catalog

STARLINK-6332

AliveCommunicationsVLEO
NORAD 57339·PAYLOAD·🇺🇸 United States

Launched Jul 16, 2023 from Cape Canaveral Space Force Station

Loading…

Next Passes (next 24 hours)

TLE

FreshSource: CelesTrak SupGP

Epoch: Sep 14, 2026, 22:22 UTC

1 57339C 23099M   26257.93243056  .00025502  00000+0  92390-3 0  2570
2 57339  42.9991 263.7793 0001362 262.3529 226.5127 15.27558302    15

Track STARLINK-6332 in real time with AllMySat

Download on the App Store